Regional Weather Roundup
Issued by NWS Charleston, SC

Current Version | Previous Version | Graphics & Text | Print | Product List | Glossary On
Versions: 1 2 3 4 5 6 7 8 9 10 11 12 13 14 15 16 17 18 19 20 21 22 23 24 25 26 27 28 29 30 31 32 33 34 35 36 37 38 39 40 41 42 43 44 45 46 47 48 49 50
000
ASUS42 KCHS 181727
RWRCHS

Regional Weather Roundup
National Weather Service Charleston SC
1200 PM EST MON DEC 18 2017

NOTE: "fair" indicates few or no clouds below 12,000 feet with no
significant weather and/or obstructions to visibility.

Not all stations are quality controlled. Use data with caution,
especially dewpoint observations.

SCZ027-030-031-034>040-042>050-181800-
...Southeast South Carolina...

CITY           SKY/WX    TMP DP  RH WIND       PRES   REMARKS
N Charleston   PTSUNNY   66  62  87 W6        30.17F
Waterfront Prk   N/A     66  62  87 W6        30.04
Mount Pleasant FAIR      68  63  83 W6        30.16F
Johns Island   CLOUDY    70  63  78 W6        30.16F
Pinopolis        N/A     61  57  88 CALM      30.09
Moncks Corner  FAIR      68  59  73 W5        30.16F
Summerville    PTSUNNY   68  61  77 W5        30.17F
Beaufort MCAS  CLOUDY    66  64  93 SW7       30.18
Beaufort Arpt  CLOUDY    63  61  94 SW3       30.17F FOG
Hilton Head Is PTSUNNY   66  63  88 S6        30.20F
Walterboro     CLOUDY    68  61  77 SW7       30.17F
Allendale      CLOUDY    66  59  77 CALM      30.17F

...Southern Midlands and Pee Dee...

CITY           SKY/WX    TMP DP  RH WIND       PRES   REMARKS
Georgetown     CLOUDY    70  63  78 W6        30.16F
Kingstree      PTSUNNY   66  57  72 S3        30.15F
Orangeburg     CLOUDY    66  57  72 SW9       30.16F
Barnwell         N/A     68  61  77 W7        30.17F
Aiken          CLOUDY    63  54  72 SW9       30.19F
Manning        FAIR      66  -9   4 MISG      30.15F
Columbia       PTSUNNY   63  54  72 SW8       30.15F
Sumter         PTSUNNY   61  50  68 W6        30.13F
Florence       SUNNY     63  52  67 W8        30.15F
Myrtle Beach   PTSUNNY   68  60  75 W9        30.16F
N Myrtle Beach MOSUNNY   68  59  73 W5        30.14F

$$

GAZ063-065-086>088-099>101-113>116-118-119-134>141-150-181800-
...Southeast Georgia...

CITY           SKY/WX    TMP DP  RH WIND       PRES   REMARKS
Savannah Arpt  CLOUDY    68  64  87 W8        30.19F
Hunter AAF     PTSUNNY   66  63  91 SW5       30.16F
Fort Stewart   CLOUDY    70  63  78 W8        30.17F
Statesboro     CLOUDY    66  60  80 SW5       30.19F
Sylvania       CLOUDY    66  63  90 CALM      30.20F
Claxton        CLOUDY    67  65  94 CALM      30.19F

...CSRA, Central and far Southeast Georgia...

CITY           SKY/WX    TMP DP  RH WIND       PRES   REMARKS
Thomson        CLOUDY    63  55  74 W5        30.22F
Augusta-Bush   CLOUDY    65  55  70 VRB5      30.18F
Augusta-Daniel CLOUDY    65  54  67 SW7       30.19F
Swainsboro     CLOUDY    66  66 100 W6        30.20F
Vidalia        CLOUDY    66  64  94 W3        30.19F
Eastman        HAZE      67  60  80 CALM      30.22F VSB 1
Hazlehurst     CLOUDY    69  65  89 SW5       30.18F
Alma           CLOUDY    69  65  86 SW5       30.20F FOG
Waycross       CLOUDY    72  68  89 W7        30.20F
Jesup          NOT AVBL
Baxley         CLOUDY    64  64 100 S5        30.19F FOG
Brunswick      CLOUDY    72  64  78 SW10      30.21F
Saint Simons   CLOUDY    71  65  81 SW6       30.20F

$$

SCZ027-028-034-036>038-045-046-048>050-GAZ119-141-181800-
...Lake and Supplemental Coastal Observations...

STATION/POSITION TIME  TEMP    WIND        PRES    WAVE   SWELL
                       AIR SEA DIR/SP/G            HT/PER HT/PER/DIR
                 (UTC) (F)     (DEG/KT/KT) (MB)    (FT/S) (FT/S/D)
Winyah Bay       1645   68     280/  7     1021.0F
Lake Murray      NOT AVBL
ACE Basin NERRS  1645   65     250/  2     1022.0F
Fort Pulaski     1700   63 54  230/  4/  6 1022.5
Sapelo Island    1700   69     260/  3     1023.0

$$

ANZ835-935-AMZ111-154-330-350-352-354-370-450-454-472-181800-
...C-MAN and Buoy Observations...

STATION/POSITION TIME  TEMP    WIND        PRES    WAVE   SWELL
                       AIR SEA DIR/SP/G            HT/PER HT/PER/DIR
                 (UTC) (F)     (DEG/KT/KT) (MB)    (FT/S) (FT/S/D)
Buoy 41004       1710   69 73  250/ 16/ 19 1021.7
Buoy 41008       1650   61 59  190/  8/ 10 1023.0F   2/10   2/130/10
Folly Beach CMAN 1700   57     220/  7/  9 1022.3F
Capers Nearshore 1708   55 56  240/ 10/ 12 1021.4F


STATION/POSITION TIME  TEMP    WIND        PRES    WAVE   SWELL
                       AIR SEA DIR/SP/G            HT/PER HT/PER/DIR
                 (UTC) (F)     (DEG/KT/KT) (MB)    (FT/S) (FT/S/D)
5E St. Marys GA  1700      62                N/A     2/10
Frying Pan Buoy  1710   67 71  270/ 14/ 16 1020.9
Buoy 41025       1710   62 72  290/ 10/ 16 1020.7
Cape Lookout NC  1700          340/  1/  3 1020.9F
Buoy 41002       1650   73 74  240/ 17/ 21 1022.0F   4/ 5   2/130/ 9
Buoy 41010       NOT AVBL
St Augustine FL  1700   77 64  240/ 10/ 12 1023.8F


$$




USA.gov is the U.S. government's official web portal to all federal, state and local government web resources and services.